Terminal Aerodrome Forecast
Issued by NWS Cleveland, OH

Home | Current Version | Previous Version | Graphics & Text | Print | Product List | Glossary On
Versions: 1 2 3 4 5 6 7 8 9 10 11 12 13 14 15
000
FTUS41 KCLE 222321
TAFMFD
TAF
KMFD 222321Z 2300/2324 VRB03KT P6SM SCT150 BKN250
     FM231500 34005KT P6SM BKN150 OVC250
     FM232200 02005KT P6SM SCT040 BKN150=

USA.gov is the U.S. government's official web portal to all federal, state and local government web resources and services.